Location: Lane
(33.5226°N, 79.8788°W)
Time: 04:55:23
(UTC+00:00)

Vanguard 2 - Pass Details

Date: 11 October 2022
Orbit: 553 x 2933 km, 32.9° (Epoch: 26 November)

Event Time Altitude Azimuth Distance (km) Brightness Sun altitude
Rises 21:15:59 0° 283° (WNW) 5,204 12.7 18.2°
Reaches altitude 10° 21:19:05 10° 278° (W) 4,488 12.7 17.6°
Maximum altitude 21:31:49 51° 207° (SSW) 3,117 11.3 15.1°
Drops below altitude 10° 21:48:35 10° 139° (SE) 5,753 11.8 11.8°
Sets 21:53:14 0° 134° (SE) 6,720 12.0 10.9°
